Simultaneous Nadir Overpasses (SNOs) Predictions

Prediction of SNOs between AQUA and TERRA Satellite Orbit:

Table of predicted SNOs for the next 14.0 days since TLE Epoch: 12/17/2023
Index Date (AQUA) Time (AQUA) Lat,Lon (AQUA) SZA (AQUA ) Date (TERRA) Time (TERRA) Lat,Lon (TERRA) SZA (TERRA ) Distance(km) Time Diff (sec)
1 12/22/2023 02:27:52 -74.89, -39.79 81.75 12/22/2023 02:28:56 -74.86, -36.56 81.79 94.02 64
2 12/22/2023 03:17:14 74.80, 128.11 98.16 12/22/2023 03:18:19 74.77, 130.89 98.13 81.30 65
3 12/22/2023 04:06:36 -74.75, -64.13 81.89 12/22/2023 04:07:42 -74.73, -61.56 81.92 75.18 66
4 12/22/2023 04:55:58 74.66, 103.77 98.02 12/22/2023 04:57:05 74.64, 105.88 97.99 62.37 67
5 12/22/2023 05:45:20 -74.62, -88.47 82.03 12/22/2023 05:46:28 -74.59, -86.57 82.06 56.32 68
6 12/22/2023 06:34:43 74.57, 79.30 97.93 12/22/2023 06:35:51 74.51, 80.88 97.86 47.60 68
7 12/22/2023 07:24:05 -74.53,-112.95 82.12 12/22/2023 07:25:14 -74.46,-111.56 82.19 41.75 69
8 12/22/2023 08:13:27 74.43, 54.95 97.78 12/22/2023 08:14:37 74.37, 55.89 97.72 28.85 70
9 12/22/2023 09:02:49 -74.39,-137.30 82.26 12/22/2023 09:04:00 -74.33,-136.56 82.32 23.22 71
10 12/22/2023 09:52:11 74.29, 30.59 97.64 12/22/2023 09:53:23 74.24, 30.90 97.59 10.77 72
11 12/22/2023 10:41:34 -74.30,-161.78 82.35 12/22/2023 10:42:45 -74.25,-161.43 82.41 12.15 71
12 12/22/2023 11:30:56 74.20, 6.11 97.55 12/22/2023 11:32:07 74.21, 6.15 97.56 1.53 71
13 12/22/2023 12:20:19 -74.21, 173.74 82.44 12/22/2023 12:21:29 -74.22, 173.82 82.44 2.67 70
14 12/22/2023 13:09:42 74.16, -18.50 97.51 12/22/2023 13:10:51 74.18, -18.60 97.53 3.72 69
15 12/22/2023 13:59:05 -74.17, 149.13 82.48 12/22/2023 14:00:13 -74.19, 149.07 82.47 2.33 68
16 12/22/2023 14:48:29 74.18, -43.22 97.53 12/22/2023 14:49:34 74.20, -43.24 97.55 2.72 65
17 12/22/2023 15:37:52 -74.19, 124.41 82.47 12/22/2023 15:38:56 -74.21, 124.44 82.45 2.59 64
18 12/22/2023 16:27:16 74.19, -67.95 97.54 12/22/2023 16:28:18 74.17, -67.99 97.52 2.48 62
19 12/22/2023 17:16:39 -74.20, 99.68 82.45 12/22/2023 17:17:40 -74.18, 99.69 82.48 2.54 61
20 12/22/2023 18:06:03 74.21, -92.68 97.56 12/22/2023 18:07:01 74.19, -92.62 97.54 2.22 58
21 12/22/2023 18:55:26 -74.22, 74.95 82.44 12/22/2023 18:56:23 -74.20, 75.06 82.45 3.60 57
22 12/22/2023 19:44:49 74.17,-117.28 97.52 12/22/2023 19:45:45 74.16,-117.37 97.51 2.70 56
23 12/22/2023 20:34:12 -74.18, 50.35 82.48 12/22/2023 20:35:07 -74.17, 50.31 82.48 1.44 55
24 12/22/2023 21:23:36 74.18,-142.01 97.53 12/22/2023 21:24:28 74.18,-142.00 97.53 0.37 52
25 12/22/2023 22:12:59 -74.19, 25.62 82.46 12/22/2023 22:13:50 -74.19, 25.68 82.46 1.68 51
26 12/22/2023 23:02:23 74.20,-166.73 97.55 12/22/2023 23:03:11 74.21,-166.63 97.55 3.30 48
27 12/22/2023 23:51:45 -74.16, 1.02 82.50 12/22/2023 23:52:34 -74.16, 0.93 82.49 2.81 49
28 12/23/2023 00:41:09 74.16, 168.66 97.51 12/23/2023 00:41:55 74.18, 168.62 97.52 2.32 46
29 12/23/2023 01:30:32 -74.17, -23.71 82.49 12/23/2023 01:31:17 -74.18, -23.71 82.47 1.68 45
30 12/23/2023 02:19:56 74.17, 143.93 97.52 12/23/2023 02:20:38 74.20, 143.98 97.55 3.18 42
31 12/23/2023 03:09:19 -74.18, -48.44 82.47 12/23/2023 03:10:01 -74.15, -48.46 82.50 3.28 42
32 12/23/2023 03:58:43 74.19, 119.21 97.53 12/23/2023 03:59:22 74.17, 119.23 97.51 2.35 39
33 12/23/2023 04:48:06 -74.20, -73.16 82.46 12/23/2023 04:48:44 -74.18, -73.09 82.48 3.34 38
34 12/23/2023 05:37:29 74.15, 94.60 97.50 12/23/2023 05:38:06 74.14, 94.48 97.48 3.80 37
35 12/23/2023 06:26:52 -74.16, -97.77 82.50 12/23/2023 06:27:28 -74.15, -97.84 82.51 2.61 36
36 12/23/2023 07:16:16 74.16, 69.87 97.51 12/23/2023 07:16:49 74.16, 69.85 97.50 0.89 33
37 12/23/2023 08:05:39 -74.17,-122.50 82.48 12/23/2023 08:06:11 -74.17,-122.47 82.49 1.14 32
38 12/23/2023 08:55:03 74.18, 45.15 97.52 12/23/2023 08:55:32 74.18, 45.22 97.53 2.22 29
39 12/23/2023 09:44:25 -74.14,-147.10 82.52 12/23/2023 09:44:55 -74.14,-147.22 82.52 3.54 30
40 12/23/2023 10:33:49 74.14, 20.54 97.49 12/23/2023 10:34:16 74.15, 20.47 97.49 2.37 27
41 12/23/2023 11:23:12 -74.15,-171.83 82.51 12/23/2023 11:23:38 -74.16,-171.85 82.50 1.04 26
42 12/23/2023 12:12:36 74.16, -4.19 97.50 12/23/2023 12:12:59 74.17, -4.16 97.52 1.92 23
43 12/23/2023 13:01:59 -74.17, 163.44 82.50 12/23/2023 13:02:21 -74.18, 163.51 82.48 2.72 22
44 12/23/2023 13:51:23 74.17, -28.92 97.51 12/23/2023 13:51:43 74.14, -28.92 97.48 3.20 20
45 12/23/2023 14:40:45 -74.13, 138.84 82.53 12/23/2023 14:41:05 -74.15, 138.76 82.51 3.21 20
46 12/23/2023 15:30:09 74.13, -53.52 97.48 12/23/2023 15:30:26 74.16, -53.55 97.51 3.41 17
47 12/23/2023 16:19:32 -74.14, 114.11 82.52 12/23/2023 16:19:48 -74.17, 114.13 82.49 3.25 16
48 12/23/2023 17:08:56 74.15, -78.25 97.49 12/23/2023 17:09:10 74.13, -78.30 97.47 2.25 14
49 12/23/2023 17:58:18 -74.16, 89.38 82.51 12/23/2023 17:58:31 -74.14, 89.38 82.52 1.79 13
50 12/23/2023 18:47:42 74.16,-102.98 97.50 12/23/2023 18:47:52 74.15,-102.93 97.49 1.64 10
51 12/23/2023 19:37:05 -74.17, 64.65 82.49 12/23/2023 19:37:14 -74.16, 64.75 82.50 3.04 9
52 12/23/2023 20:26:28 74.12,-127.58 97.46 12/23/2023 20:26:36 74.12,-127.68 97.46 2.99 8
53 12/23/2023 21:15:51 -74.14, 40.05 82.53 12/23/2023 21:15:58 -74.13, 40.00 82.53 1.50 7
54 12/23/2023 22:05:15 74.14,-152.31 97.48 12/23/2023 22:05:19 74.14,-152.31 97.48 0.62 4
55 12/23/2023 22:54:38 -74.15, 15.32 82.52 12/23/2023 22:54:41 -74.15, 15.36 82.51 1.49 3
56 12/23/2023 23:44:02 74.15,-177.04 97.49 12/23/2023 23:44:02 74.17,-176.95 97.50 3.09 0
57 12/24/2023 00:33:24 -74.11, -9.29 82.55 12/24/2023 00:33:25 -74.12, -9.39 82.54 3.20 1
58 12/24/2023 01:22:48 74.12, 158.35 97.45 12/24/2023 01:22:46 74.14, 158.30 97.47 2.63 2
59 12/24/2023 02:12:11 -74.13, -34.02 82.54 12/24/2023 02:12:08 -74.15, -34.02 82.52 2.02 3
60 12/24/2023 03:01:35 74.13, 133.63 97.47 12/24/2023 03:01:29 74.16, 133.67 97.49 3.13 6
61 12/24/2023 03:50:58 -74.14, -58.74 82.53 12/24/2023 03:50:52 -74.12, -58.77 82.55 3.07 6
62 12/24/2023 04:40:22 74.15, 108.90 97.48 12/24/2023 04:40:13 74.13, 108.92 97.46 2.26 9
63 12/24/2023 05:29:45 -74.16, -83.47 82.51 12/24/2023 05:29:35 -74.14, -83.40 82.53 3.05 10
64 12/24/2023 06:19:09 74.16, 84.17 97.50 12/24/2023 06:18:56 74.15, 84.28 97.48 3.75 13
65 12/24/2023 07:08:31 -74.12,-108.08 82.55 12/24/2023 07:08:19 -74.11,-108.15 82.57 2.69 12
66 12/24/2023 07:57:55 74.12, 59.56 97.46 12/24/2023 07:57:40 74.12, 59.53 97.45 1.16 15
67 12/24/2023 08:47:18 -74.13,-132.81 82.54 12/24/2023 08:47:02 -74.13,-132.79 82.55 0.99 16
68 12/24/2023 09:36:42 74.14, 34.83 97.47 12/24/2023 09:36:23 74.14, 34.90 97.47 2.00 19
69 12/24/2023 10:26:05 -74.15,-157.53 82.52 12/24/2023 10:25:45 -74.15,-157.42 82.52 3.52 20
70 12/24/2023 11:15:28 74.10, 10.23 97.43 12/24/2023 11:15:07 74.11, 10.15 97.44 2.45 21
71 12/24/2023 12:04:51 -74.11, 177.86 82.56 12/24/2023 12:04:29 -74.12, 177.83 82.56 1.06 22
72 12/24/2023 12:54:15 74.12, -14.50 97.45 12/24/2023 12:53:50 74.13, -14.48 97.46 1.50 25
73 12/24/2023 13:43:38 -74.13, 153.13 82.55 12/24/2023 13:43:12 -74.14, 153.20 82.54 2.51 26
74 12/24/2023 14:33:02 74.13, -39.23 97.46 12/24/2023 14:32:34 74.10, -39.23 97.43 3.67 28
75 12/24/2023 15:22:24 -74.09, 128.52 82.59 12/24/2023 15:21:56 -74.11, 128.45 82.57 3.08 28
76 12/24/2023 16:11:48 74.10, -63.84 97.42 12/24/2023 16:11:17 74.12, -63.87 97.45 2.94 31
77 12/24/2023 17:01:11 -74.11, 103.79 82.57 12/24/2023 17:00:39 -74.13, 103.81 82.55 2.90 32
78 12/24/2023 17:50:35 74.11, -88.57 97.43 12/24/2023 17:50:01 74.09, -88.62 97.42 2.80 34
79 12/24/2023 18:39:58 -74.12, 79.07 82.56 12/24/2023 18:39:23 -74.10, 79.06 82.58 2.21 35
80 12/24/2023 19:29:22 74.13,-113.29 97.45 12/24/2023 19:28:44 74.11,-113.25 97.43 2.03 38
81 12/24/2023 20:18:45 -74.14, 54.34 82.55 12/24/2023 20:18:06 -74.12, 54.43 82.56 3.19 39
82 12/24/2023 21:08:08 74.09,-137.90 97.41 12/24/2023 21:07:28 74.08,-138.00 97.40 3.21 40
83 12/24/2023 21:57:31 -74.10, 29.73 82.59 12/24/2023 21:56:50 -74.09, 29.68 82.59 1.72 41
84 12/24/2023 22:46:55 74.10,-162.63 97.42 12/24/2023 22:46:11 74.10,-162.64 97.42 0.29 44
85 12/24/2023 23:36:18 -74.11, 5.00 82.57 12/24/2023 23:35:33 -74.11, 5.05 82.57 1.39 45
86 12/25/2023 00:25:42 74.12, 172.64 97.44 12/25/2023 00:24:54 74.12, 172.73 97.44 2.75 48
87 12/25/2023 01:15:04 -74.08, -19.61 82.61 12/25/2023 01:14:17 -74.08, -19.70 82.60 2.98 47
88 12/25/2023 02:04:28 74.08, 148.03 97.40 12/25/2023 02:03:38 74.09, 147.98 97.41 1.96 50
89 12/25/2023 02:53:51 -74.09, -44.34 82.60 12/25/2023 02:53:00 -74.10, -44.34 82.58 1.22 51
90 12/25/2023 03:43:15 74.10, 123.30 97.41 12/25/2023 03:42:21 74.11, 123.35 97.43 2.18 54
91 12/25/2023 04:32:38 -74.11, -69.07 82.58 12/25/2023 04:31:43 -74.12, -68.97 82.56 3.42 55
92 12/25/2023 05:22:02 74.11, 98.57 97.43 12/25/2023 05:21:05 74.08, 98.59 97.40 3.39 57
93 12/25/2023 06:11:24 -74.07, -93.67 82.62 12/25/2023 06:10:27 -74.09, -93.72 82.60 2.94 57
94 12/25/2023 07:00:48 74.08, 73.97 97.39 12/25/2023 06:59:48 74.10, 73.96 97.42 3.08 60
95 12/25/2023 07:50:11 -74.09,-118.40 82.61 12/25/2023 07:49:11 -74.06,-118.47 82.63 3.32 60
96 12/25/2023 08:39:35 74.09, 49.24 97.40 12/25/2023 08:38:32 74.07, 49.21 97.38 2.22 63
97 12/25/2023 09:28:58 -74.10,-143.13 82.59 12/25/2023 09:27:54 -74.08,-143.11 82.61 2.01 64
98 12/25/2023 10:18:22 74.11, 24.51 97.42 12/25/2023 10:17:15 74.09, 24.58 97.40 2.47 67
99 12/25/2023 11:07:44 -74.07,-167.74 82.63 12/25/2023 11:06:38 -74.05,-167.86 82.64 3.77 66
100 12/25/2023 11:57:08 74.07, -0.10 97.38 12/25/2023 11:55:59 74.06, -0.18 97.37 2.41 69
101 12/25/2023 12:46:31 -74.08, 167.53 82.62 12/25/2023 12:45:21 -74.08, 167.51 82.62 0.89 70
102 12/25/2023 13:35:55 74.09, -24.83 97.39 12/25/2023 13:34:42 74.08, -24.81 97.39 0.63 73
103 12/25/2023 14:25:17 -74.04, 142.92 82.66 12/25/2023 14:24:05 -74.04, 142.76 82.66 4.97 72
104 12/25/2023 15:14:39 73.95, -49.20 97.25 12/25/2023 15:13:28 73.95, -49.79 97.25 18.14 71
105 12/25/2023 16:04:02 -73.96, 118.43 82.75 12/25/2023 16:02:50 -73.96, 117.89 82.74 16.46 72
106 12/25/2023 16:53:24 73.86, -73.70 97.16 12/25/2023 16:52:14 73.81, -74.77 97.12 33.61 70
107 12/25/2023 17:42:46 -73.82, 94.05 82.89 12/25/2023 17:41:36 -73.83, 92.92 82.87 35.14 70
108 12/25/2023 18:32:08 73.72, -98.08 97.01 12/25/2023 18:30:59 73.73, -99.63 97.03 48.45 69
109 12/25/2023 19:21:31 -73.73, 69.55 82.98 12/25/2023 19:20:22 -73.69, 67.95 83.01 50.34 69
110 12/25/2023 20:10:52 73.58,-122.46 96.87 12/25/2023 20:09:45 73.59,-124.60 96.90 67.22 67
111 12/25/2023 21:00:14 -73.59, 45.17 83.12 12/25/2023 20:59:07 -73.56, 42.98 83.15 68.94 67
112 12/25/2023 21:49:35 73.44,-146.85 96.73 12/25/2023 21:48:30 73.46,-149.57 96.76 86.00 65
113 12/25/2023 22:38:58 -73.45, 20.78 83.27 12/25/2023 22:37:52 -73.47, 18.12 83.23 84.01 66



Historial Predications of SNOs between AQUA and TERRA
